Location: Unspecified
(0.0000°N, 0.0000°E)
Time: 17:02:32
(UTC+00:00)

Courier 1B - All Passes

Search period start: 30 August 2016 00:00
Search period end: 09 September 2016 00:00
Orbit: 962 x 1209 km, 28.3° (Epoch: 30 August)

Date Brightness Start Highest point End Pass type
(mag) Time Alt. Az. Time Alt. Az. Time Alt. Az.
30 Aug - 00:12:45 10° NW 00:14:43 11° NNW 00:16:41 10° N night (unlit)
30 Aug - 05:59:57 10° N 06:03:15 14° NNE 06:06:36 10° NE daylight
30 Aug - 07:51:17 10° NW 07:57:42 50° NNE 08:04:30 10° ESE daylight
30 Aug - 09:45:18 10° W 09:51:54 47° SSW 09:58:55 10° SE daylight
30 Aug - 11:42:44 10° SW 11:46:51 16° SSW 11:51:06 10° SSE daylight
30 Aug - 17:32:14 10° SSW 17:36:41 16° SSE 17:41:03 10° ESE daylight
30 Aug - 19:24:25 10° SW 19:31:47 46° SSE 19:38:45 10° E visible
30 Aug - 21:18:49 10° WSW 21:26:08 55° NNW 21:32:59 10° NE visible
30 Aug - 23:16:29 10° WNW 23:20:39 16° NNW 23:24:41 10° NNE night (unlit)
31 Aug - 06:57:59 10° NW 07:03:55 35° NNE 07:10:06 10° E daylight
31 Aug - 08:51:21 10° WNW 08:58:01 65° SSW 09:05:10 10° SE daylight
31 Aug - 10:47:40 10° WSW 10:52:41 20° SSW 10:57:55 10° SSE daylight
31 Aug - 16:39:27 10° S 16:42:20 12° SSE 16:45:12 10° SE daylight
31 Aug - 18:30:47 10° SW 18:37:45 35° SSE 18:44:26 10° E visible
31 Aug - 20:24:34 10° WSW 20:32:15 76° NNW 20:39:27 10° NE visible
31 Aug - 22:21:08 10° WNW 22:26:38 23° NNW 22:31:55 10° NNE night (unlit)
01 Sep - 06:04:52 10° NNW 06:10:06 25° NNE 06:15:27 10° E daylight
01 Sep - 07:57:35 10° WNW 08:04:13 89° SW 08:11:17 10° ESE daylight
01 Sep - 09:52:59 10° W 09:58:37 26° SSW 10:04:32 10° SSE daylight
01 Sep - 17:37:17 10° SSW 17:43:38 26° SSE 17:49:49 10° E daylight
01 Sep - 19:30:30 10° WSW 19:38:19 80° SSE 19:45:43 10° ENE visible
01 Sep - 21:26:10 10° W 21:32:41 31° NNW 21:38:51 10° NNE visible
02 Sep - 05:11:58 10° NNW 05:16:12 18° NNE 05:20:29 10° ENE visible
02 Sep - 07:04:00 10° NW 07:10:28 66° NNE 07:17:16 10° ESE daylight
02 Sep - 08:58:37 10° W 09:04:39 35° SSW 09:11:04 10° SE daylight
02 Sep - 10:57:25 10° SW 10:59:48 12° SSW 11:02:13 10° S daylight
02 Sep - 16:43:58 10° SSW 16:49:26 20° SSE 16:54:51 10° ESE daylight
02 Sep - 18:36:37 10° SW 18:44:20 60° SSE 18:51:45 10° ENE visible
02 Sep - 20:31:31 10° W 20:38:44 43° NNW 20:45:35 10° NE visible
02 Sep - 22:30:17 10° NW 22:33:32 13° NNW 22:36:42 10° N night (unlit)
03 Sep - 04:19:27 10° N 04:22:14 13° NNE 04:25:00 10° NE visible
03 Sep - 06:10:34 10° NW 06:16:44 46° NNE 06:23:06 10° ESE daylight
03 Sep - 08:04:29 10° WNW 08:10:48 48° SSW 08:17:28 10° SE daylight
03 Sep - 10:01:45 10° SW 10:05:34 15° SSW 10:09:31 10° SSE daylight
03 Sep - 15:50:55 10° SSW 15:55:10 15° SSE 15:59:25 10° SE daylight
03 Sep - 17:42:53 10° SW 17:50:19 44° SSE 17:57:33 10° E daylight
03 Sep - 19:37:07 10° WSW 19:44:47 60° NNW 19:52:06 10° NE visible
03 Sep - 21:34:28 10° WNW 21:39:25 19° NNW 21:44:12 10° NNE visible
04 Sep - 05:17:17 10° NNW 05:22:58 32° NNE 05:28:45 10° E visible
04 Sep - 07:10:34 10° WNW 07:17:01 68° SSW 07:23:47 10° SE daylight
04 Sep - 09:06:44 10° WSW 09:11:29 20° SSW 09:16:25 10° SSE daylight
04 Sep - 14:58:29 10° S 15:00:49 11° SSE 15:03:09 10° SE daylight
04 Sep - 16:49:19 10° SW 16:56:14 33° SSE 17:03:05 10° E daylight
04 Sep - 18:42:55 10° WSW 18:50:49 81° NNW 18:58:26 10° ENE visible
04 Sep - 20:39:13 10° W 20:45:20 26° NNW 20:51:14 10° NNE visible
05 Sep - 04:24:08 10° NNW 04:29:08 23° NNE 04:34:09 10° ENE visible
05 Sep - 06:16:49 10° WNW 06:23:18 86° NNE 06:29:58 10° ESE daylight
05 Sep - 08:12:07 10° W 08:17:31 27° SSW 08:23:09 10° SSE daylight
05 Sep - 15:55:56 10° SSW 16:02:06 25° SSE 16:08:18 10° ESE daylight
05 Sep - 17:48:56 10° SW 17:56:50 76° SSE 18:04:33 10° ENE daylight
05 Sep - 19:44:21 10° W 19:51:18 35° NNW 19:58:01 10° NE visible
05 Sep - 21:44:36 10° NW 21:46:26 11° NNW 21:48:15 10° N visible
06 Sep - 03:31:11 10° NNW 03:35:14 17° NNE 03:39:15 10° ENE visible
06 Sep - 05:23:12 10° NW 05:29:34 61° NNE 05:36:02 10° ESE visible
06 Sep - 07:17:45 10° W 07:23:39 36° SSW 07:29:45 10° SE daylight
06 Sep - 09:16:38 10° SW 09:18:35 11° SSW 09:20:31 10° S daylight
06 Sep - 15:02:47 10° SSW 15:07:55 19° SSE 15:13:07 10° ESE daylight
06 Sep - 16:55:08 10° SW 17:02:48 56° SSE 17:10:27 10° ENE daylight
06 Sep - 18:49:48 10° WSW 18:57:17 47° NNW 19:04:35 10° NE visible
06 Sep - 20:48:01 10° WNW 20:52:12 15° NNW 20:56:18 10° N visible
07 Sep - 02:38:37 10° N 02:41:12 12° NNE 02:43:47 10° NE visible
07 Sep - 04:29:44 10° NW 04:35:51 43° NNE 04:41:57 10° E visible
07 Sep - 06:23:37 10° WNW 06:29:52 50° SSW 06:36:15 10° SE daylight
07 Sep - 08:20:53 10° SW 08:24:27 15° SSW 08:28:06 10° S daylight
07 Sep - 14:09:59 10° S 14:13:40 14° SSE 14:17:24 10° SE daylight
07 Sep - 16:01:31 10° SW 16:08:46 42° SSE 16:16:06 10° E daylight
07 Sep - 17:55:29 10° WSW 18:03:17 65° NNW 18:10:58 10° NE daylight
07 Sep - 19:52:28 10° WNW 19:58:01 21° NNW 20:03:27 10° NNE visible
08 Sep - 03:36:23 10° NNW 03:42:03 30° NNE 03:47:39 10° E visible
08 Sep - 05:29:41 10° WNW 05:36:08 72° SSW 05:42:39 10° SE visible
08 Sep - 07:25:50 10° WSW 07:30:27 20° SSW 07:35:09 10° SSE daylight
08 Sep - 13:18:53 10° SSE 13:19:20 10° SSE 13:19:47 10° SSE daylight
08 Sep - 15:08:05 10° SSW 15:14:43 31° SSE 15:21:27 10° E daylight
08 Sep - 17:01:25 10° WSW 17:09:17 86° NNW 17:17:09 10° ENE daylight
08 Sep - 18:57:23 10° W 19:03:53 28° NNW 19:10:17 10° NNE visible
